Orbital Elements at Epoch 2456365.5 (2013-Mar-14.0) TDB
Reference: JPL 136 (heliocentric ecliptic J2000)
Element | Value | Uncertainty (1-sigma) | Units |
e | 1.000032713934215 | 1.3011e-07 | |
a | -9217.613572306012 | 36.665 | au |
q | .301544404022693 | 1.5084e-07 | au |
i | 84.20818671265653 | 7.1982e-06 | deg |
node | 65.66588341697526 | 6.8436e-06 | deg |
peri | 333.6516382152546 | 5.6714e-06 | deg |
M | 4.26560639807278E-6 | 2.5439e-08 | deg |
tp | 2456361.669949932096 (2013-Mar-10.16994993) | 1.8605e-05 | TDB |
period | n/a n/a | n/a n/a | d yr |
n | 1.113720792795573E-6 | 6.6451e-09 | deg/d |
Q | n/a | n/a | au |
|
| | Orbit Determination Parameters
Additional Information
|